Wind_Speed
84 84 83 83 81 81 81 78 77 78 79 80 78 79 80 78 77 74 74 70 66 64 63 62 58 57 53 50 46 45 46 49 47 43 42 39 37 35 38 41 53 58 54
80 82 83 80 79 82 78 68 67 61 64 64 68 70 70 69 69 66 66 66 68 67 63 62 62 57 55 51 47 47 44 45 46 46 45 43 39 36 37 44 47 62 58
74 73 73 71 68 62 65 67 66 58 60 67 68 68 68 65 64 66 67 67 64 64 67 65 63 62 63 58 52 50 48 46 48 48 48 45 40 38 37 43 49 63 60
77 76 76 73 70 68 57 54 54 64 61 62 66 70 68 69 70 68 68 67 65 66 67 68 69 67 62 64 61 60 56 51 49 47 49 45 42 38 39 42 52 52 70
77 78 79 79 77 78 77 77 74 65 60 64 65 66 63 68 72 74 64 66 69 69 73 73 71 69 72 73 74 71 65 58 55 54 51 50 45 40 38 40 49 54 55
87 87 86 86 86 85 82 80 78 83 82 86 80 76 83 79 78 69 70 66 68 67 69 69 69 70 69 69 69 67 63 61 57 56 55 52 48 41 37 39 43 51 53
94 96 96 94 94 95 92 89 81 86 90 89 86 82 85 87 80 78 83 81 75 75 76 76 71 68 70 71 70 64 58 55 50 49 44 43 42 39 35 35 39 47 51
105 104 104 105 104 102 102 100 97 98 96 97 94 87 76 80 75 81 82 84 84 79 78 74 70 70 67 66 65 60 53 46 42 42 40 37 39 38 34 34 36 41 46
112 111 109 107 108 108 107 107 106 102 97 97 85 60 76 81 82 87 89 82 85 78 78 75 65 64 63 54 52 51 46 47 40 40 37 35 35 38 35 31 32 37 40
98 98 98 97 96 99 99 100 100 99 96 99 101 98 101 102 97 101 96 89 86 83 80 73 69 64 68 59 55 53 51 53 46 41 37 38 35 38 37 30 29 33 36
83 86 87 88 89 89 90 93 94 95 96 97 103 102 106 113 111 106 104 101 93 86 87 83 79 70 72 66 63 59 56 54 53 50 43 40 37 36 38 31 27 30 34
62 68 73 74 75 78 81 88 91 91 92 96 96 97 106 113 115 115 111 103 99 90 87 92 90 81 69 72 67 66 63 62 57 55 48 44 41 36 38 33 28 30 36
50 55 59 62 64 64 66 70 76 81 88 90 91 91 93 98 100 104 102 100 98 95 93 91 79 76 74 68 75 78 66 66 64 64 56 48 44 38 38 35 27 31 37
40 41 44 46 52 55 55 60 62 65 73 78 85 90 90 92 92 94 98 99 101 99 100 96 88 85 77 64 63 77 70 62 61 65 59 51 46 41 39 38 30 34 40
31 31 32 35 37 40 43 48 53 59 64 68 73 78 81 85 91 96 95 95 96 99 104 97 86 77 71 69 75 72 70 72 70 66 60 55 51 42 42 39 34 37 44
23 24 25 25 28 30 34 38 43 49 52 57 61 65 68 71 78 84 86 86 86 87 83 83 80 70 70 71 75 76 75 73 72 62 61 58 55 48 45 41 39 40 47
18 19 21 22 24 25 27 29 31 36 41 45 48 52 56 62 65 69 73 74 72 76 74 73 73 68 66 71 76 75 77 76 76 65 60 60 57 51 48 46 43 43 51
14 15 17 19 21 24 26 28 30 30 32 34 36 39 43 48 53 57 61 63 59 58 60 64 69 71 71 73 77 77 77 74 73 69 63 64 61 56 53 52 46 48 55
14 13 13 14 16 19 21 23 26 27 30 33 33 35 38 39 41 46 50 48 53 54 58 62 65 69 72 75 78 75 74 70 66 67 68 65 65 59 57 56 50 51 58
15 14 13 13 13 15 16 18 20 21 22 22 23 26 28 29 32 35 36 40 44 48 51 52 55 60 62 66 70 69 66 64 62 58 63 70 66 62 60 59 54 54 62
23 18 15 13 12 12 11 12 14 14 13 14 14 14 16 19 22 25 27 30 34 39 42 43 44 48 51 53 55 57 58 59 60 61 63 64 63 63 61 60 57 59 66
21 19 15 12 10 9 8 8 8 9 7 8 9 11 13 13 15 17 19 21 25 30 33 37 40 43 47 51 52 54 56 58 58 63 65 63 64 64 63 61 58 62 68
18 15 12 8 4 3 3 4 5 6 6 7 7 8 9 9 9 11 12 13 16 20 23 27 31 35 39 42 46 48 50 51 56 62 66 65 63 63 62 62 60 64 70
8 5 4 3 2 1 1 2 5 8 6 6 6 7 9 12 13 13 15 16 17 18 20 22 25 28 32 37 40 43 45 47 51 53 57 62 62 62 61 62 60 66 74
9 8 8 7 5 4 3 1 3 4 4 4 5 7 9 10 11 12 15 17 17 19 21 23 25 26 29 33 39 43 46 47 47 49 55 59 59 59 61 62 63 70 75
15 14 14 12 12 10 8 6 3 3 3 4 4 4 5 6 7 10 13 14 14 14 17 20 23 27 30 31 32 37 41 44 46 48 51 54 55 58 60 61 67 74 77
Wind_Direction
261 262 264 264 265 266 267 268 268 269 270 270 271 273 273 274 275 275 273 273 275 276 274 274 275 274 272 273 275 282 286 285 285 281 277 270 263 257 250 243 224 238 243
259 260 260 262 264 264 264 267 269 268 271 272 270 269 272 275 277 277 278 277 273 273 272 269 270 272 271 266 275 281 282 283 283 282 280 276 264 261 252 245 238 228 240
258 259 261 261 260 260 262 257 253 253 264 270 267 265 269 271 273 275 276 278 277 271 269 269 269 269 270 267 276 280 277 277 279 281 280 276 270 265 257 247 239 227 232
260 260 258 257 257 255 251 254 256 250 252 261 266 264 268 273 274 274 273 270 272 268 268 267 267 267 269 268 274 279 275 274 274 276 278 277 274 268 261 248 238 235 226
257 257 258 259 257 257 257 260 260 252 254 250 260 258 257 264 264 269 266 266 268 268 267 264 265 269 269 270 275 276 275 275 276 276 276 278 277 271 264 252 239 236 233
261 259 258 258 259 259 258 258 260 262 257 256 253 255 261 263 265 263 261 263 262 262 263 264 264 267 267 269 271 273 274 274 274 273 277 276 275 270 263 252 240 235 232
259 260 259 257 257 257 257 256 254 248 260 261 258 261 264 263 258 250 251 257 254 256 260 266 263 262 264 267 270 272 273 273 273 268 264 268 270 270 265 253 240 234 232
260 258 258 259 258 256 255 254 254 254 256 258 261 265 266 261 255 252 253 255 255 256 259 263 260 260 262 264 265 268 267 263 256 256 259 264 269 268 264 255 242 235 230
261 260 258 257 257 256 255 255 254 254 251 252 251 243 254 250 249 251 256 262 260 258 257 259 255 262 262 262 262 261 254 251 250 255 257 260 266 267 264 257 245 237 230
258 257 256 255 253 252 252 253 252 251 247 247 244 245 246 252 256 258 260 263 259 253 255 250 257 263 263 262 259 254 254 256 253 260 261 264 262 265 266 259 248 239 226
257 257 255 254 253 251 251 250 249 249 248 246 246 247 245 249 254 258 261 264 256 254 247 248 254 263 257 257 255 255 250 252 254 256 262 263 262 261 263 258 248 236 219
255 256 257 256 252 248 246 247 248 247 246 246 245 243 243 246 249 253 257 259 260 258 246 252 254 258 252 253 253 251 257 260 256 253 260 259 258 254 258 254 245 226 211
259 256 255 254 254 253 251 248 247 245 245 246 245 245 243 243 246 249 249 250 255 257 258 259 256 258 260 251 253 245 254 256 254 254 257 253 251 247 251 250 242 222 206
263 259 257 256 255 255 252 249 246 243 241 241 241 243 243 243 243 246 246 248 248 253 256 257 258 258 259 250 249 244 244 251 249 252 248 241 238 241 242 245 236 216 203
268 264 261 257 252 249 247 244 243 241 240 239 240 241 242 244 244 245 248 249 249 250 252 255 256 255 250 246 241 242 244 248 245 245 243 239 234 231 233 237 232 213 201
275 271 266 260 255 252 249 247 243 241 241 243 245 246 248 247 247 248 250 251 251 253 253 253 253 245 248 246 243 240 242 244 239 240 239 234 231 225 227 228 228 212 200
264 266 264 267 267 262 256 250 245 245 246 245 244 243 244 246 249 251 252 254 253 251 252 250 249 245 242 241 238 237 237 238 235 237 235 230 228 224 220 225 222 211 200
277 264 258 259 254 249 246 247 247 245 246 246 245 245 245 244 245 246 248 250 251 249 246 243 240 238 236 235 236 238 237 237 235 233 234 229 226 221 217 222 216 210 201
296 294 280 267 258 250 245 243 243 243 243 243 246 248 249 249 248 248 249 249 249 246 241 236 234 234 234 234 235 238 237 234 236 232 229 224 223 218 217 218 213 207 201
317 311 299 285 272 256 248 242 238 239 238 238 244 248 253 253 251 251 249 244 243 242 240 239 238 235 234 234 235 237 237 233 231 221 221 221 220 216 216 216 209 204 201
315 313 298 289 282 262 252 246 243 245 250 252 253 258 257 256 252 250 247 243 241 239 238 235 234 235 234 233 234 234 235 234 229 222 219 218 217 215 213 215 207 202 200
308 300 300 292 284 269 254 250 255 257 248 255 262 267 262 255 254 252 252 247 242 237 234 231 228 224 222 224 226 226 224 221 218 215 213 214 214 213 211 213 206 200 198
308 301 302 305 279 252 255 256 242 225 214 227 247 258 257 255 250 249 247 242 237 233 232 234 234 233 232 229 228 227 226 222 216 213 212 213 212 211 208 209 204 198 196
324 332 354 58 70 22 239 222 201 197 223 244 243 241 241 247 250 247 247 243 238 231 228 227 226 226 225 225 226 227 226 224 219 212 207 209 209 208 204 204 199 197 195
66 67 66 60 47 30 30 74 167 206 231 240 250 267 275 271 268 263 260 258 248 242 237 233 230 224 219 216 217 219 220 217 214 209 207 206 207 202 200 200 197 196 194
72 79 88 97 99 99 100 96 121 192 211 234 258 270 270 280 289 290 282 269 256 243 236 235 230 224 220 217 210 208 210 212 205 203 202 202 198 197 197 197 195 195 192
Height
10653 10656 10659 10664 10669 10673 10677 10683 10687 10687 10688 10687 10686 10683 10683 10685 10688 10692 10695 10698 10702 10705 10708 10707 10709 10712 10715 10717 10719 10720 10721 10717 10717 10718 10720 10723 10725 10729 10730 10732 10738 10741 10746
10635 10636 10640 10645 10649 10651 10660 10666 10667 10668 10666 10669 10668 10668 10668 10668 10671 10674 10677 10682 10685 10687 10691 10693 10694 10695 10698 10701 10704 10707 10709 10709 10707 10707 10708 10710 10714 10716 10718 10721 10725 10730 10736
10615 10618 10620 10626 10629 10632 10636 10642 10648 10653 10653 10652 10651 10651 10651 10652 10655 10659 10660 10661 10667 10667 10671 10676 10677 10678 10681 10686 10689 10694 10697 10698 10697 10696 10696 10698 10702 10705 10706 10708 10711 10716 10725
10595 10599 10601 10608 10612 10615 10617 10621 10625 10638 10638 10638 10640 10637 10638 10638 10641 10644 10644 10647 10648 10648 10651 10654 10658 10662 10666 10668 10672 10678 10683 10685 10685 10685 10683 10685 10689 10693 10693 10695 10698 10703 10711
10576 10578 10581 10585 10591 10594 10599 10603 10608 10617 10618 10619 10623 10624 10623 10625 10625 10627 10629 10629 10632 10631 10633 10636 10641 10647 10650 10652 10657 10661 10667 10671 10672 10672 10671 10672 10676 10680 10679 10680 10684 10690 10697
10550 10554 10559 10562 10565 10569 10576 10581 10587 10590 10595 10596 10603 10606 10607 10608 10609 10612 10613 10613 10610 10615 10616 10620 10625 10629 10633 10635 10640 10646 10651 10654 10658 10658 10657 10658 10662 10667 10665 10666 10671 10676 10684
10523 10523 10526 10533 10539 10541 10549 10556 10569 10561 10563 10567 10576 10583 10583 10585 10589 10590 10591 10594 10596 10598 10600 10605 10608 10612 10616 10620 10626 10632 10636 10639 10642 10643 10644 10646 10649 10652 10653 10655 10659 10663 10672
10488 10492 10495 10498 10505 10511 10517 10525 10532 10540 10543 10543 10549 10550 10554 10554 10563 10565 10569 10573 10577 10582 10585 10588 10590 10594 10599 10603 10609 10618 10621 10624 10629 10630 10632 10635 10636 10640 10641 10644 10648 10653 10661
10448 10451 10456 10463 10468 10475 10482 10489 10497 10508 10524 10524 10528 10541 10528 10527 10536 10543 10548 10554 10554 10560 10564 10572 10573 10578 10583 10588 10595 10602 10607 10609 10616 10618 10621 10624 10626 10628 10631 10634 10639 10643 10652
10409 10413 10417 10422 10431 10438 10446 10454 10461 10472 10487 10495 10500 10507 10511 10503 10505 10516 10523 10531 10539 10541 10545 10552 10558 10562 10567 10575 10581 10589 10593 10596 10605 10606 10609 10612 10616 10617 10620 10625 10630 10635 10643
10379 10383 10389 10395 10401 10408 10416 10422 10428 10436 10448 10461 10469 10476 10482 10483 10488 10492 10498 10507 10517 10522 10526 10532 10538 10546 10550 10558 10566 10573 10576 10583 10589 10594 10597 10600 10605 10608 10611 10615 10620 10626 10634
10360 10361 10362 10366 10371 10376 10384 10391 10398 10409 10418 10426 10437 10448 10454 10460 10465 10469 10476 10479 10484 10495 10507 10511 10520 10528 10536 10541 10550 10556 10559 10565 10573 10578 10584 10588 10593 10598 10600 10605 10611 10617 10626
10339 10341 10342 10344 10347 10351 10359 10364 10371 10381 10389 10399 10408 10418 10426 10431 10439 10444 10449 10456 10460 10467 10476 10482 10492 10501 10512 10521 10527 10534 10544 10548 10556 10561 10568 10575 10581 10587 10590 10595 10603 10609 10618
10322 10324 10324 10326 10328 10333 10339 10343 10348 10355 10360 10367 10376 10386 10394 10403 10412 10417 10422 10427 10436 10442 10450 10456 10465 10475 10486 10498 10507 10515 10525 10530 10536 10544 10552 10558 10565 10575 10580 10586 10593 10600 10609
10310 10311 10311 10312 10314 10317 10322 10326 10331 10335 10341 10347 10353 10360 10369 10379 10385 10387 10394 10404 10410 10417 10424 10433 10445 10458 10466 10475 10485 10493 10501 10512 10519 10524 10536 10544 10553 10561 10568 10575 10584 10591 10600
10302 10301 10301 10303 10304 10306 10309 10311 10316 10320 10325 10331 10338 10345 10352 10357 10361 10366 10371 10376 10383 10389 10399 10414 10425 10436 10442 10449 10460 10469 10478 10490 10499 10504 10518 10528 10537 10546 10557 10563 10573 10581 10591
10298 10296 10295 10294 10295 10296 10298 10301 10304 10308 10312 10318 10324 10329 10335 10338 10342 10346 10350 10354 10361 10367 10383 10393 10404 10414 10422 10427 10434 10444 10455 10465 10476 10486 10501 10511 10521 10534 10544 10551 10560 10572 10580
10291 10290 10290 10290 10290 10291 10292 10293 10294 10297 10300 10304 10309 10313 10318 10322 10325 10329 10332 10335 10346 10354 10364 10370 10379 10386 10394 10404 10413 10422 10431 10443 10457 10468 10481 10495 10505 10518 10529 10539 10546 10559 10568
10286 10284 10283 10283 10284 10284 10285 10287 10288 10291 10293 10295 10299 10301 10304 10309 10313 10315 10318 10328 10328 10332 10337 10343 10351 10361 10370 10379 10387 10397 10409 10423 10434 10449 10463 10476 10487 10502 10515 10525 10533 10547 10556
10284 10281 10278 10277 10277 10277 10278 10280 10281 10283 10286 10288 10290 10292 10294 10297 10299 10303 10307 10310 10312 10315 10319 10326 10335 10341 10350 10359 10368 10378 10391 10405 10418 10432 10446 10457 10470 10485 10499 10511 10521 10534 10544
10278 10276 10274 10273 10272 10271 10272 10273 10275 10276 10278 10280 10282 10283 10285 10287 10289 10291 10294 10296 10299 10302 10305 10311 10319 10328 10336 10344 10351 10363 10375 10389 10402 10417 10430 10440 10455 10469 10483 10496 10507 10519 10532
10272 10270 10268 10267 10267 10268 10269 10270 10271 10273 10274 10275 10277 10277 10278 10280 10281 10283 10285 10288 10290 10293 10297 10301 10306 10312 10320 10327 10335 10345 10355 10367 10381 10398 10412 10424 10437 10452 10468 10483 10495 10507 10521
10265 10264 10264 10264 10265 10266 10267 10268 10268 10270 10272 10272 10273 10274 10275 10276 10278 10278 10279 10280 10283 10286 10289 10293 10299 10305 10312 10319 10326 10334 10343 10354 10365 10377 10395 10408 10422 10437 10453 10469 10481 10495 10510
10262 10261 10262 10262 10263 10264 10265 10265 10266 10268 10270 10271 10271 10272 10273 10273 10274 10275 10276 10277 10278 10281 10284 10288 10292 10298 10304 10310 10315 10323 10332 10342 10354 10366 10378 10394 10408 10424 10440 10455 10470 10483 10496
10262 10262 10262 10263 10264 10265 10266 10267 10268 10269 10270 10270 10270 10271 10272 10272 10272 10272 10272 10273 10275 10277 10279 10282 10286 10291 10295 10301 10307 10315 10323 10331 10342 10356 10369 10383 10399 10414 10428 10442 10457 10470 10486
10267 10267 10267 10267 10267 10268 10268 10269 10269 10270 10270 10270 10270 10269 10269 10269 10269 10269 10269 10268 10269 10270 10272 10275 10278 10283 10288 10294 10301 10308 10316 10325 10336 10348 10361 10375 10391 10404 10418 10431 10446 10461 10476